Regional Weather Roundup
Issued by NWS

Home | Current Version | Previous Version | Graphics & Text | Print | Product List | Glossary On
Versions: 1 2 3 4 5 6 7 8 9 10 11 12 13 14 15 16 17 18 19 20 21 22 23 24 25 26 27 28 29 30 31 32 33 34 35 36 37 38 39 40 41 42 43 44 45 46 47 48 49 50
000
ASUS45 KTFX 210204
RWRMT
MONTANA HOURLY WEATHER ROUNDUP
NATIONAL WEATHER SERVICE GREAT FALLS MT
804 PM MDT MON OCT 20 2014

NOTE: "FAIR" INDICATES FEW OR NO CLOUDS BELOW 12000 FEET WITH NO
SIGNIFICANT WEATHER AND/OR OBSTRUCTIONS TO VISIBILITY.

* THESE STATIONS ARE NOT UNDER NWS QUALITY CONTROL. THEY DO NOT
   REPORT WEATHER SUCH AS PRECIPITATION OR FOG.

MTZ001>007-043-210300-
WEST OF THE DIVIDE
CITY           SKY/WX    TMP DP  RH WIND       PRES   REMARKS
KALISPELL      MOCLDY    48  41  77 CALM      29.71F
MISSOULA       MOCLDY    57  41  55 S5        29.72S
BUTTE          CLOUDY    63  30  29 S13       29.87R
MULLAN PASS    MOCLDY    46  36  68 NW5       29.84F
* ESSEX        N/A       47  41  80 E1         N/A
* LINCOLN      N/A       57  35  44 NW2        N/A
* POLSON       N/A       57  35  44 N/A        N/A
* RONAN APT    PTCLDY    54  43  67 N/A        N/A
* SEELEY LAKE  N/A       57  36  46 NE2        N/A
* THOMP F APT  MOCLDY    54  31  42 E5         N/A
$$

MTZ008-052>055-210300-
SOUTHWEST MONTANA
CITY           SKY/WX    TMP DP  RH WIND       PRES   REMARKS
BOZEMAN        CLEAR     55  34  45 S10       29.85R
DILLON         CLEAR     64  30  28 S15G24    29.86R
W YELLOWSTONE  PTCLDY    45  32  60 CALM      30.02F
* THREE FORKS  CLEAR     66  39  37 S5         N/A
* BOULDER HILL N/A       59  27  29 S7         N/A
* MONIDA PASS  N/A       51  31  46 S4         N/A
* RAYNOLDS PAS N/A       51  32  48 SE12       N/A
* WHITEHALL    N/A       62  30  30 W2         N/A
* WISE RIVER   N/A       59  31  35 SE4        N/A
$$

MTZ009>010-012-014-046-048-049-054-210300-
EAST SLOPES AND CENTRAL MONTANA
CITY           SKY/WX    TMP DP  RH WIND       PRES   REMARKS
CUT BANK       PTCLDY    57  28  33 W5        29.73S
GREAT FALLS    CLEAR     63  34  34 S9        29.74S
HELENA         CLOUDY    59  37  44 CALM      29.76S
MALMSTROM AFB  CLEAR     55  36  49 S7        29.75F
* CONRAD       CLEAR     48  30  50 N/A        N/A
* DEARBORN     N/A       59  36  42 N/A        N/A
* EAST GLACIER N/A       60  29  31 W11        N/A
* MONARCH      N/A       56  25  30 S6         N/A
* PENDROY      N/A       54  28  37 W1         N/A
* SAINT MARY   N/A       61  28  29 S6         N/A
* SWEET GRASS  N/A       63  27  26 W12        N/A
$$

MTZ011-013-016-021-035-040-045-047-050-051-210300-
NORTH CENTRAL MONTANA
CITY           SKY/WX    TMP DP  RH WIND       PRES   REMARKS
HAVRE          CLEAR     55  43  64 S6        29.70F
LEWISTOWN      CLEAR     55  36  49 SE5       29.82S
* CHINOOK      CLEAR     57  46  67 NE3       29.70F
* FORT BENTON  CLEAR     63  34  34 CALM      29.72S
* CHESTER      N/A       61  27  27 S1         N/A
* DENTON       N/A       59  37  44 S12        N/A
* GEYSER       N/A       52  34  50 S9         N/A
* JUDITH GAP   N/A       55  31  40 E7         N/A
* LOMA         N/A       67  33  28 SE2        N/A
$$

MTZ017>020-022>027-061-062-210300-
NORTHEAST MONTANA
CITY           SKY/WX    TMP DP  RH WIND       PRES   REMARKS
GLASGOW        CLEAR     55  39  55 E13       29.75S
GLENDIVE       CLEAR     63  41  45 S9        29.83F
JORDAN         CLEAR     61  34  36 VRB3      29.78S
SIDNEY         CLEAR     48  39  71 CALM      29.82S
WOLF POINT     CLEAR     54  41  62 N3        29.77S
* BEAVER HILL  N/A       64  41  43 SE14G19    N/A
* CIRCLE       N/A       62  38  41 N/A        N/A
* LINDSAY DVD  N/A       58  39  49 NE1        N/A
* NAVAJO       N/A       58  40  51 S8         N/A
* SACO         N/A       61  46  58 E7         N/A
$$

MTZ028>042-056>058-210300-
SOUTHCENTRAL AND SOUTHEAST MONTANA
CITY           SKY/WX    TMP DP  RH WIND       PRES   REMARKS
BAKER          CLEAR     52  41  66 SE10      29.87F
BILLINGS       CLEAR     70  28  21 SE8       29.83F
LIVINGSTON     CLEAR     66  34  31 SW12      29.86R
MILES CITY     CLEAR     64  37  37 SE7       29.81F
* LAUREL APT   CLEAR     64  28  26 N/A        N/A
* ROUNDUP APT  CLEAR     68  30  24 SE6        N/A
* ALZADA       N/A       57  45  64 E2         N/A
* HYSHAM       N/A       66  28  24 SE6        N/A
* LAME DEER    N/A       68  26  21 E4         N/A
* REED POINT   N/A       62  30  30 SE1        N/A
* ROSCOE HILL  N/A       62  24  23 SW6        N/A
$$

REGIONAL REPORTS...DAKOTAS
CITY           SKY/WX    TMP DP  RH WIND       PRES   REMARKS
WILLISTON      CLEAR     55  41  59 CALM      29.81F
DICKINSON      CLEAR     57  41  55 SE12      29.87F
BEACH          N/A       54  41  62 SE12      29.87S
CROSBY         CLEAR     59  41  51 S16G23    29.81F
TIOGA          CLEAR     59  41  51 S17       29.87F
BISMARCK       CLEAR     52  36  55 E6        29.94S
GRAND FORKS    CLEAR     46  39  77 SE8       30.03S
FARGO          CLEAR     48  39  71 E5        30.03S
BUFFALO SD     CLEAR     59  41  51 E8        29.83F
RAPID CITY     CLEAR     55  45  69 CALM      29.91S
$$

REGIONAL REPORTS...WYOMING/IDAHO/WASHINGTON
CITY           SKY/WX    TMP DP  RH WIND       PRES   REMARKS
GILLETTE       CLEAR     61  34  36 S13       29.91R
SHERIDAN       CLEAR     52  34  50 SE6       29.88S
CODY           CLEAR    N/A N/A N/A S3        29.92S
YELLOWSTONE LA PTCLDY    43  32  65 CALM      30.12F
SALMON         PTCLDY    54  37  53 NW3       29.76R
MULLAN PASS    MOCLDY    46  36  68 NW5       29.84S
SAND POINT     MOCLDY    54  52  93 CALM      29.72F
SPOKANE        CLOUDY    63  45  52 SW8       29.74R

$$




USA.gov is the U.S. government's official web portal to all federal, state and local government web resources and services.